Weather History for Bozeman, MT

Change the Weather History Date:

Tuesday, March 19, 2013

  Actual Average Record
Temperature  
Mean Temperature 32 °F 38 °F  
Max Temperature 43 °F 51 °F 71 °F (1997)
Min Temperature 20 °F 25 °F -5 °F (1943)
Degree Days  
Heating Degree Days 33    
Month to date heating degree days 595  
Since 1 July heating degree days 6327  
Cooling Degree Days 0    
Month to date cooling degree days 0  
Year to date cooling degree days 0  
Moisture  
Dew Point 13 °F    
Average Humidity 51    
Maximum Humidity 81    
Minimum Humidity 20    
Precipitation  
Precipitation T in 0.03 in 0.38 in (1982)
Month to date precipitation 0.14 0.49  
Year to date precipitation 0.45 1.40  
Snow  
Snow T in 0.20 in 4.90 in (1948)
Month to date snowfall 1.4 4.5  
Since 1 July snowfall 19.3 26.8  
Snow Depth T in    
Sea Level Pressure  
Sea Level Pressure 30.23 in    
Wind  
Wind Speed 6 mph (South)    
Max Wind Speed 16 mph    
Max Gust Speed 20 mph    
Visibility 10 miles    
Events Snow    
T = Trace of Precipitation, MM = Missing Value Source: NWS Daily Summary

Daily Weather History Graph

Daily Weather History Graph

Search for Another Location

Airport:

Trip Planner

Search our weather history database for the weather conditions in past years. The results will help you decide how hot, cold, wet, or windy it might be!

Date:

Astronomy

Mar. 19, 2013 Rise Set
Actual Time 7:28 AM MDT 7:36 PM MDT
Civil Twilight 6:59 AM MDT 8:06 PM MDT
Nautical Twilight 6:24 AM MDT 8:40 PM MDT
Astronomical Twilight 5:48 AM MDT 9:16 PM MDT
Moon 12:05 PM MDT 2:43 AM MDT
Length of Visible Light 13h 06m
Length of Day
12h 07m
Waxing Crescent, 50% of the Moon is Illuminated
Mar 19
Waxing Crescent
Mar 27
Full
Apr 2
Last Quarter
Apr 10
New
Apr 18
First Quarter

Hourly Weather History & Observations

Time (MDT) Temp. Windchill Dew Point Humidity Pressure Visibility Wind Dir Wind Speed Gust Speed Precip Events Conditions
12:56 AM 28.9 °F 18.6 °F 19.0 °F 67% 30.09 in 9.0 mi NW 12.7 mph - 0.00 in Snow Light Snow
1:56 AM 28.0 °F 20.0 °F 21.0 °F 75% 30.11 in 10.0 mi WSW 8.1 mph - 0.00 in   Overcast
2:56 AM 27.0 °F 18.7 °F 21.0 °F 78% 30.14 in 10.0 mi WSW 8.1 mph - N/A   Overcast
3:56 AM 26.1 °F 17.6 °F 19.0 °F 75% 30.15 in 10.0 mi WSW 8.1 mph - N/A   Mostly Cloudy
4:56 AM 24.1 °F - 17.1 °F 75% 30.18 in 10.0 mi Calm Calm - N/A   Scattered Clouds
5:56 AM 24.1 °F - 16.0 °F 71% 30.22 in 10.0 mi Calm Calm - N/A   Mostly Cloudy
6:56 AM 21.0 °F 13.4 °F 14.0 °F 74% 30.26 in 10.0 mi SE 5.8 mph - N/A   Mostly Cloudy
7:56 AM 21.9 °F 17.2 °F 15.1 °F 75% 30.28 in 10.0 mi South 3.5 mph - N/A   Mostly Cloudy
8:56 AM 26.1 °F 21.9 °F 16.0 °F 66% 30.31 in 10.0 mi South 3.5 mph - N/A   Overcast
9:56 AM 28.9 °F - 14.0 °F 54% 30.33 in 10.0 mi Calm Calm - N/A   Clear
10:56 AM 33.1 °F 28.7 °F 9.0 °F 37% 30.33 in 10.0 mi WSW 4.6 mph - N/A   Clear
11:56 AM 34.0 °F 28.0 °F 7.0 °F 32% 30.32 in 10.0 mi West 6.9 mph - N/A   Partly Cloudy
12:56 PM 36.0 °F 27.5 °F 8.1 °F 31% 30.31 in 10.0 mi West 12.7 mph - N/A   Mostly Cloudy
1:56 PM 37.9 °F 32.7 °F 7.0 °F 28% 30.29 in 10.0 mi Variable 6.9 mph - N/A   Clear
2:56 PM 41.0 °F 36.4 °F 7.0 °F 25% 30.27 in 10.0 mi NNE 6.9 mph - N/A   Clear
3:56 PM 42.1 °F - 6.1 °F 23% 30.26 in 10.0 mi Calm Calm - N/A   Clear
4:56 PM 42.1 °F 40.2 °F 5.0 °F 22% 30.26 in 10.0 mi SE 3.5 mph - N/A   Clear
5:56 PM 43.0 °F 38.2 °F 7.0 °F 23% 30.23 in 10.0 mi East 8.1 mph - N/A   Clear
6:56 PM 42.1 °F 38.4 °F 9.0 °F 26% 30.23 in 10.0 mi ENE 5.8 mph - N/A   Clear
7:56 PM 33.1 °F 25.5 °F 10.9 °F 40% 30.24 in 10.0 mi SE 9.2 mph - N/A   Clear
8:56 PM 32.0 °F 24.2 °F 12.0 °F 44% 30.22 in 10.0 mi South 9.2 mph - N/A   Clear
9:56 PM 27.0 °F 17.3 °F 12.9 °F 56% 30.22 in 10.0 mi SE 10.4 mph - N/A   Clear
10:56 PM 26.1 °F 20.5 °F 15.1 °F 63% 30.19 in 10.0 mi East 4.6 mph - N/A   Clear
11:56 PM 27.0 °F 19.5 °F 14.0 °F 58% 30.16 in 10.0 mi SE 6.9 mph - N/A   Mostly Cloudy